     28   01 13.73  +28 30.5    0.726   0.695   195.0/ 42    43.2   91.0   13.7   +19.1  248.1

     29   01 23.86  +30 54.2    0.726   0.677   195.7/ 44    41.9   92.4   13.6   +19.1  245.1

     30   01 34.62  +33 14.1    0.729   0.660   195.4/ 46    40.5   93.7   13.5   +18.9  242.1

     31   01 46.05  +35 28.9    0.733   0.643   194.0/ 48    39.2   94.7   13.4   +18.6  239.2

June  1   01 58.14  +37 37.0    0.740   0.626   191.5/ 50    37.9   95.5   13.3   +18.2  236.3

      2   02 10.88  +39 37.0    0.749   0.610   188.1/ 53    36.7   96.0   13.2   +17.6  233.5

      3   02 24.22  +41 27.6    0.760   0.594   183.9/ 56    35.6   96.3   13.1   +17.0  230.8

      4   02 38.12  +43 07.8    0.773   0.578   179.0/ 59    34.5   96.2   13.1   +16.3  228.2

      5   02 52.49  +44 36.7    0.788   0.563   173.5/ 62    33.5   95.9   13.0   +15.5  225.8

      6   03 07.22  +45 53.4    0.805   0.549   167.6/ 66    32.6   95.2   12.9   +14.7  223.5

      7   03 22.19  +46 57.8    0.824   0.535   161.5/ 70    31.7   94.2   12.9   +13.8  221.4

      8   03 37.26  +47 49.6    0.845   0.521   155.2/ 74    30.9   92.9   12.8   +12.8  219.5

      9   03 52.26  +48 29.0    0.867   0.509   148.9/ 78    30.1   91.3   12.8   +11.8  217.7

     10   04 07.05  +48 56.3    0.891   0.497   142.7/ 82    29.3   89.4   12.7   +10.7  216.1

     11   04 21.48  +49 12.2    0.916   0.486   136.7/ 87    28.6   87.1   12.7    +9.6  214.7

     12   04 35.43  +49 17.3    0.942   0.477   130.8/ 91    27.9   84.7   12.7    +8.5  213.4

     13   04 48.79  +49 12.6    0.969   0.468   125.3/ 95    27.2   81.9   12.6    +7.4  212.3

     14   05 01.47  +48 58.9    0.998   0.461   120.1/ 99    26.4   79.0   12.6    +6.3  211.4

     15   05 13.42  +48 37.2    1.027   0.455   115.2/103    25.7   75.8   12.6    +5.2  210.6

     16   05 24.62  +48 08.4    1.056   0.450   110.6/107    25.0   72.5   12.7    +4.0  209.9

     17   05 35.06  +47 33.6    1.086   0.447   106.4/111    24.3   69.1   12.7    +2.9  209.4

     18   05 44.73  +46 53.6    1.116   0.445   102.4/115    23.5   65.5   12.7    +1.8  209.0

     19   05 53.68  +46 09.2    1.147   0.445    98.8/118    22.7   61.9   12.8    +0.7  208.7

     20   06 01.93  +45 21.3    1.177   0.446    95.4/122    21.9   58.3   12.8    -0.3  208.6

     21   06 09.54  +44 30.5    1.208   0.449    92.2/125    21.1   54.7   12.9    -1.4  208.5

     22   06 16.53  +43 37.4    1.238   0.453    89.3/127    20.3   51.1   13.0    -2.4  208.6

     23   06 22.98  +42 42.6    1.267   0.458    86.5/130    19.5   47.6   13.1    -3.4  208.7

     24   06 28.91  +41 46.6    1.297   0.465    83.8/132    18.6   44.2   13.2    -4.3  209.0

     25   06 34.39  +40 49.9    1.326   0.473    81.3/134    17.8   40.9   13.4    -5.3  209.3

     26   06 39.45  +39 52.7    1.354   0.483    79.0/136    16.9   37.7   13.5    -6.2  209.7

     27   06 44.15  +38 55.5    1.382   0.493    76.7/138    16.0   34.7   13.6    -7.0  210.1

     28   06 48.50  +37 58.4    1.410   0.504    74.5/139    15.2   31.8   13.8    -7.8  210.6

     29   06 52.56  +37 01.6    1.436   0.516    72.5/141    14.3   29.1   13.9    -8.6  211.2

     30   06 56.35  +36 05.4    1.462   0.529    70.5/142    13.4   26.5   14.1    -9.3  211.8

July  1   06 59.91  +35 09.8    1.488   0.543    68.6/143    12.6   24.1   14.2   -10.0  212.5

                    m1 = 16.0 + 5 log △ + 10.0 log r

NAKANO

         **** Don't distribute anyone except personal use only ****

                (C) Copyright 2008 OAA/ComputingSection

write mail from CFAD0::NAKANO on 2008-05-17 06:03:52(JST).

 

◎C/2008 J4の軌道と予報位置



 彗星は,6月上旬に明け方の低空で12等級まで明るくなるでしょう.



    C/2008 J4 (McNaught)

T 2008 June 19.44060 TT                                 Nakano

q   0.4448496            (2000.0)            P               Q

                   Peri.   93.70866     +0.00522527     -0.32839831

                   Node   289.10938     -0.33232097     +0.89028447

e   1.0            Incl.   88.39556     +0.94315188     +0.31551246

From 11 observations 2008 May 10-13.



2008/        α  (2000) δ      △      r    Daily motion  Elong. Phase    m1   天文薄明開始時

 27h JST    h  m       。  ,        AU      AU      ,     。     。      。      等     h。    A 。 

May  15   23 46.47  -00 01.0    0.884   0.929   126.7/ 33    58.3   67.7   15.4   +13.1  279.6

     16   23 51.10  +01 45.0    0.864   0.911   132.9/ 33    57.5   69.4   15.3   +13.8  277.8

     17   23 55.97  +03 36.0    0.845   0.893   139.2/ 33    56.6   71.1   15.1   +14.5  276.0

     18   00 01.11  +05 32.1    0.827   0.875   145.7/ 34    55.7   72.9   15.0   +15.1  274.0

     19   00 06.54  +07 33.3    0.810   0.856   152.2/ 34    54.7   74.7   14.9   +15.8  271.9

     20   00 12.30  +09 39.3    0.794   0.838   158.7/ 34    53.7   76.6   14.7   +16.4  269.7

     21   00 18.40  +11 50.1    0.780   0.820   165.1/ 35    52.5   78.5   14.6   +17.0  267.4

     22   00 24.89  +14 05.3    0.767   0.802   171.2/ 35    51.3   80.4   14.5   +17.5  264.9

     23   00 31.79  +16 24.4    0.755   0.784   176.9/ 36    50.1   82.3   14.3   +18.0  262.3

     24   00 39.13  +18 46.7    0.746   0.766   182.1/ 37    48.8   84.1   14.2   +18.4  259.6

     25   00 46.97  +21 11.6    0.738   0.748   186.6/ 38    47.4   86.0   14.1   +18.7  256.9

     26   00 55.32  +23 37.9    0.732   0.730   190.4/ 39    46.0   87.7   14.0   +18.9  254.0

     27   01 04.23  +26 04.7    0.728   0.712   193.2/ 40    44.6   89.4   13.8   +19.1  251.1

     28   01 13.73  +28 30.5    0.726   0.695   195.0/ 42    43.2   91.0   13.7   +19.1  248.1

     29   01 23.86  +30 54.2    0.726   0.677   195.7/ 44    41.9   92.4   13.6   +19.1  245.1

     30   01 34.62  +33 14.1    0.729   0.660   195.4/ 46    40.5   93.7   13.5   +18.9  242.1

     31   01 46.05  +35 28.9    0.733   0.643   194.0/ 48    39.2   94.7   13.4   +18.6  239.2

June  1   01 58.14  +37 37.0    0.740   0.626   191.5/ 50    37.9   95.5   13.3   +18.2  236.3

      2   02 10.88  +39 37.0    0.749   0.610   188.1/ 53    36.7   96.0   13.2   +17.6  233.5

      3   02 24.22  +41 27.6    0.760   0.594   183.9/ 56    35.6   96.3   13.1   +17.0  230.8

      4   02 38.12  +43 07.8    0.773   0.578   179.0/ 59    34.5   96.2   13.1   +16.3  228.2

      5   02 52.49  +44 36.7    0.788   0.563   173.5/ 62    33.5   95.9   13.0   +15.5  225.8

      6   03 07.22  +45 53.4    0.805   0.549   167.6/ 66    32.6   95.2   12.9   +14.7  223.5

      7   03 22.19  +46 57.8    0.824   0.535   161.5/ 70    31.7   94.2   12.9   +13.8  221.4

      8   03 37.26  +47 49.6    0.845   0.521   155.2/ 74    30.9   92.9   12.8   +12.8  219.5

      9   03 52.26  +48 29.0    0.867   0.509   148.9/ 78    30.1   91.3   12.8   +11.8  217.7

     10   04 07.05  +48 56.3    0.891   0.497   142.7/ 82    29.3   89.4   12.7   +10.7  216.1

     11   04 21.48  +49 12.2    0.916   0.486   136.7/ 87    28.6   87.1   12.7    +9.6  214.7

     12   04 35.43  +49 17.3    0.942   0.477   130.8/ 91    27.9   84.7   12.7    +8.5  213.4

     13   04 48.79  +49 12.6    0.969   0.468   125.3/ 95    27.2   81.9   12.6    +7.4  212.3

     14   05 01.47  +48 58.9    0.998   0.461   120.1/ 99    26.4   79.0   12.6    +6.3  211.4

     15   05 13.42  +48 37.2    1.027   0.455   115.2/103    25.7   75.8   12.6    +5.2  210.6

     16   05 24.62  +48 08.4    1.056   0.450   110.6/107    25.0   72.5   12.7    +4.0  209.9

     17   05 35.06  +47 33.6    1.086   0.447   106.4/111    24.3   69.1   12.7    +2.9  209.4

     18   05 44.73  +46 53.6    1.116   0.445   102.4/115    23.5   65.5   12.7    +1.8  209.0

     19   05 53.68  +46 09.2    1.147   0.445    98.8/118    22.7   61.9   12.8    +0.7  208.7

     20   06 01.93  +45 21.3    1.177   0.446    95.4/122    21.9   58.3   12.8    -0.3  208.6

     21   06 09.54  +44 30.5    1.208   0.449    92.2/125    21.1   54.7   12.9    -1.4  208.5

     22   06 16.53  +43 37.4    1.238   0.453    89.3/127    20.3   51.1   13.0    -2.4  208.6

     23   06 22.98  +42 42.6    1.267   0.458    86.5/130    19.5   47.6   13.1    -3.4  208.7

     24   06 28.91  +41 46.6    1.297   0.465    83.8/132    18.6   44.2   13.2    -4.3  209.0

     25   06 34.39  +40 49.9    1.326   0.473    81.3/134    17.8   40.9   13.4    -5.3  209.3

     26   06 39.45  +39 52.7    1.354   0.483    79.0/136    16.9   37.7   13.5    -6.2  209.7

     27   06 44.15  +38 55.5    1.382   0.493    76.7/138    16.0   34.7   13.6    -7.0  210.1

     28   06 48.50  +37 58.4    1.410   0.504    74.5/139    15.2   31.8   13.8    -7.8  210.6

     29   06 52.56  +37 01.6    1.436   0.516    72.5/141    14.3   29.1   13.9    -8.6  211.2

     30   06 56.35  +36 05.4    1.462   0.529    70.5/142    13.4   26.5   14.1    -9.3  211.8

July  1   06 59.91  +35 09.8    1.488   0.543    68.6/143    12.6   24.1   14.2   -10.0  212.5

                    m1 = 16.0 + 5 log △ + 10.0 log r

NAKANO

         **** Don't distribute anyone except personal use only ****

                (C) Copyright 2008 OAA/ComputingSection

write mail from CFAD0::NAKANO on 2008-05-17 06:03:52(JST).

 



戻ります。